Weather in El Mahalla el Kubra

Egypt     30°58′54″N   31°09′50″E
temp.,
°C
wind,
m/s
gust,
m/s
humid.,
%
clouds,
%
prec.,
mm/h
press.,
hPa
HPBL,
m
18 april, sun
sun1823:00+18e48590 0.0 1015125
02:00+17e38660 0.0 1015125
05:00+17e36600 0.0 101497
08:00+28ene35230 0.0 1015370
11:00+39ese4680 0.0 10131479
14:00+43e5460 0.0 10102874
17:00+35ene78180 0.0 1010426
20:00+22ene4114896 0.0 1012196
19 april, mon
mon1923:00+21ene4854100 0.0 1012111
02:00+23ese3742100 0.0 1010101
05:00+24sse3430100 0.0 101051
08:00+33s4714100 0.0 1010304
11:00+41ssw697100 0.0 10093514
14:00+42sw888100 0.0 10074321
17:00+39sw78998 0.0 10071716
20:00+24nw4938100 0.0 1010189
20 april, tue
tue2023:00+19wnw487895 0.0 1012300
02:00+18nw6128772 0.0 1012406
05:00+17nnw512771 0.0 1013412
08:00+23nnw68432 0.0 1015722
11:00+27nnw66285 0.0 10151141
14:00+28nnw77220 0.0 10141230
17:00+23n67300 0.0 1015956
20:00+16n48685 0.0 1017273
21 april, wed
wed2123:00+14n34852 0.0 101873
02:00+13nnw36895 0.0 1018108
05:00+12nne358664 0.0 101871
08:00+20nne45485 0.0 1019761
11:00+28nne442216 0.0 10171331
14:00+29nne751895 0.0 10161614
17:00+23nne663098 0.0 1017926
20:00+15nne377187 0.0 1020140
22 april, thu
thu2223:00+14ene378479 0.0 1019139
02:00+13n35905 0.0 101976
05:00+13nne35915 0.0 101890
08:00+21ne46455 0.0 1019706
11:00+28nne55197 0.0 10191252
14:00+30nne76175 0.0 10171381
17:00+24nne77275 0.0 1017858
20:00+16nne3870100 0.0 1019185